Location: Casteau
(50.5142°N, 4.0161°E)
Time: 20:54:38
(UTC+00:00)

Tiros 1 - Pass Details

Date: 04 August 2021
Orbit: 630 x 663 km, 48.4° (Epoch: 28 September)

Event Time Altitude Azimuth Distance (km) Brightness Sun altitude
Rises 15:57:19 0° 205° (SSW) 2,982 11.0 30.9°
Reaches altitude 10° 16:00:12 10° 188° (S) 2,070 10.1 30.4°
Maximum altitude 16:03:35 19° 143° (SE) 1,536 9.0 29.9°
Drops below altitude 10° 16:06:58 10° 97° (E) 2,068 9.3 29.4°
Sets 16:09:51 0° 80° (E) 2,977 10.0 28.9°
